This is the latest recevied weather packets stored in our database for station/object KK6MIG-13. If no packets are shown the sender has not sent any weather packets the latest 1 day(s).
| Time | Temp. | Humidity | Pressure | Rain* | Wind** | Luminosity | Snow |
|---|---|---|---|---|---|---|---|
| 1778017035 | 15° C | 1% | 1014.8 hPa | 0 mm | 4.47 m/s, 238° | 703 W/m² | - |
| 1778016978 | 15° C | 1% | 1014.9 hPa | 0 mm | 4.92 m/s, 281° | 828 W/m² | - |
| 1778016973 | 15° C | 1% | 1014.8 hPa | 0 mm | 4.92 m/s, 279° | 756 W/m² | - |
| 1778016849 | 15° C | 1% | 1014.9 hPa | 0 mm | 4.92 m/s, 263° | 851 W/m² | - |
| 1778016796 | 15° C | 1% | 1014.8 hPa | 0 mm | 4.92 m/s, 230° | 740 W/m² | - |
| 1778016792 | 15° C | 1% | 1014.9 hPa | 0 mm | 4.47 m/s, 240° | 740 W/m² | - |
| 1778016603 | 15.56° C | 1% | 1014.9 hPa | 0 mm | 4.47 m/s, 221° | 831 W/m² | - |
| 1778016543 | 15.56° C | 1% | 1014.9 hPa | 0 mm | 4.47 m/s, 236° | 842 W/m² | - |
| 1778016483 | 15.56° C | 1% | 1014.9 hPa | 0 mm | 4.47 m/s, 233° | 796 W/m² | - |
| 1778016423 | 15.56° C | 1% | 1014.9 hPa | 0 mm | 4.47 m/s, 245° | 793 W/m² | - |
| 1778016357 | 15.56° C | 1% | 1014.9 hPa | 0 mm | 4.47 m/s, 282° | 726 W/m² | - |
| 1778016297 | 15.56° C | 1% | 1014.9 hPa | 0 mm | 4.02 m/s, 241° | 974 W/m² | - |
| 1778016237 | 15.56° C | 1% | 1014.9 hPa | 0 mm | 4.47 m/s, 257° | 974 W/m² | - |
| 1778016177 | 15.56° C | 1% | 1014.9 hPa | 0 mm | 4.47 m/s, 246° | 974 W/m² | - |
| 1778016117 | 15° C | 1% | 1014.9 hPa | 0 mm | 4.47 m/s, 240° | 773 W/m² | - |
| 1778016051 | 15° C | 1% | 1014.9 hPa | 0 mm | 4.47 m/s, 277° | 773 W/m² | - |
| 1778015999 | 15.56° C | 1% | 1014.9 hPa | 0 mm | 4.47 m/s, 215° | 756 W/m² | - |
| 1778015996 | 15.56° C | 1% | 1014.9 hPa | 0 mm | 4.47 m/s, 259° | 726 W/m² | - |
| 1778015871 | 15.56° C | 1% | 1014.9 hPa | 0 mm | 4.47 m/s, 290° | 803 W/m² | - |
| 1778015814 | 15.56° C | 1% | 1014.9 hPa | 0 mm | 4.47 m/s, 284° | 810 W/m² | - |
| 1778015810 | 15.56° C | 1% | 1014.9 hPa | 0 mm | 4.47 m/s, 261° | 754 W/m² | - |
| 1778015686 | 15.56° C | 1% | 1015 hPa | 0 mm | 4.47 m/s, 233° | 754 W/m² | - |
| 1778015626 | 15.56° C | 1% | 1014.9 hPa | 0 mm | 4.47 m/s, 242° | 803 W/m² | - |
| 1778015565 | 15.56° C | 1% | 1014.9 hPa | 0 mm | 4.47 m/s, 295° | 784 W/m² | - |
| 1778015505 | 15.56° C | 1% | 1014.9 hPa | 0 mm | 4.47 m/s, 275° | 752 W/m² | - |
* Rain latest hour (hover to see other rain measurements)
** Current wind speed in m/s (hover to see current wind gust speed)